RH
91 91 91 90 90 91 91 91 90 89 90 90 89 87 87 90 89 89 90 89 87 82 81 81 81 82 80 82 77 57 49 50 49 34 24 41 52 45 35 29 28 29 31 35 36 33 28 22 16 12 11 10 9 9 8 6 6 7 9 11 11 11 9 7 8 7 7 7 6 7 6 6 7 6 5 5 7 7 6 9 10 11 12 17 29 42 50 56
92 91 91 91 90 92 92 93 92 90 91 90 88 87 86 89 89 90 90 90 90 87 87 82 80 83 80 82 68 49 53 56 44 28 37 56 51 40 35 29 27 30 33 33 30 26 24 20 12 9 10 9 9 8 7 7 6 8 10 11 11 9 7 7 7 6 6 6 6 6 6 6 7 6 5 7 9 8 6 9 10 11 16 23 32 44 51 57
91 92 93 93 91 92 93 93 93 91 90 88 87 86 87 89 90 92 91 92 90 89 91 86 83 81 79 82 61 48 59 52 30 30 55 62 47 41 33 25 26 30 31 29 28 27 25 21 13 9 9 9 8 7 8 7 6 8 9 11 9 7 7 7 6 6 6 6 6 6 6 6 7 6 5 6 8 8 9 10 11 12 18 24 34 44 51 57
90 90 90 91 91 90 90 91 91 90 89 87 87 87 86 87 90 90 90 92 90 87 86 86 89 83 83 82 58 54 60 37 24 45 63 54 48 44 32 26 24 28 29 24 29 31 28 25 18 11 9 10 7 6 8 6 7 8 8 10 8 7 7 7 6 6 5 5 6 5 6 6 6 6 5 6 7 7 8 8 10 11 14 21 31 43 50 56
88 87 85 87 88 86 88 90 89 89 91 90 90 90 87 87 90 90 89 90 90 89 87 88 90 87 90 81 61 59 50 23 25 52 55 46 53 47 35 31 22 27 29 21 27 32 29 26 19 14 12 11 8 7 7 6 6 7 8 8 7 7 7 6 6 5 6 5 6 5 6 6 5 6 6 7 6 7 6 5 7 7 12 23 31 40 49 55
90 90 88 88 89 88 90 91 89 90 93 93 93 93 91 89 90 90 87 88 89 90 90 91 90 89 89 78 64 56 39 18 23 48 51 44 49 41 36 32 22 27 26 19 25 28 28 24 17 16 14 12 9 7 7 6 6 7 8 7 7 7 6 6 5 5 5 5 6 5 5 6 5 6 6 6 6 6 5 4 6 6 11 24 30 37 48 55
90 90 91 92 92 91 90 90 90 92 94 93 93 93 93 91 91 92 87 87 89 89 91 90 90 89 84 73 57 42 32 21 22 41 41 31 34 32 32 29 21 24 22 19 22 25 25 20 16 15 13 12 10 7 6 5 6 7 8 7 7 6 6 6 5 5 5 5 6 4 5 6 6 6 5 6 5 5 5 4 7 8 10 19 26 36 48 54
87 84 90 93 92 93 91 91 92 92 94 94 94 94 95 92 92 93 88 88 89 88 89 89 90 87 79 70 50 32 27 22 25 33 26 22 27 27 29 25 20 22 20 19 20 23 23 18 15 13 12 12 9 8 6 6 6 6 7 7 7 6 6 5 5 5 5 5 5 4 5 6 6 6 5 5 5 4 5 3 7 11 13 18 23 36 48 53
89 89 94 93 92 94 92 92 93 93 95 95 94 96 96 91 91 93 90 89 88 87 88 88 89 85 76 64 47 35 26 20 25 26 22 26 27 25 25 20 19 20 20 19 18 21 22 19 15 11 13 11 8 8 6 7 7 6 7 6 6 6 6 5 5 5 5 5 5 6 6 6 5 5 5 6 5 4 5 4 9 16 20 24 25 36 49 54
94 94 94 91 92 92 89 89 88 92 95 91 92 95 98 92 89 94 91 88 88 88 89 87 86 83 72 54 44 38 25 20 23 21 23 27 25 25 22 19 20 20 18 18 17 18 20 18 14 11 12 11 10 9 7 7 6 6 6 6 5 6 5 5 5 5 6 5 5 6 7 7 5 5 6 7 6 5 6 6 13 21 23 28 30 37 48 55
94 93 90 90 91 89 91 91 86 89 91 91 92 92 98 92 85 86 82 82 89 90 89 85 83 79 65 48 44 38 24 23 24 23 27 27 25 24 21 21 22 20 18 17 17 18 18 18 14 13 13 12 11 10 8 7 6 6 6 6 5 5 5 5 5 6 5 5 6 6 6 7 5 6 6 6 8 8 10 11 16 21 18 24 35 41 49 55
92 92 91 91 92 90 91 92 88 87 88 92 91 87 94 89 81 76 71 82 92 90 88 86 84 74 60 49 43 36 28 28 28 28 29 26 24 24 23 23 21 20 18 16 17 17 18 18 16 16 16 13 12 13 11 8 7 7 6 6 6 6 7 6 5 5 6 6 5 5 7 8 6 6 6 5 8 9 13 15 17 21 17 18 35 45 48 53
92 92 91 89 90 90 89 90 88 87 87 92 89 86 88 81 77 73 72 84 87 87 88 86 83 68 58 52 40 34 32 32 32 32 31 26 25 24 23 23 21 21 19 18 18 17 19 20 18 18 17 15 14 13 11 9 9 9 7 7 8 8 8 6 5 6 7 6 4 6 9 9 6 6 7 6 7 11 17 18 14 20 20 16 33 47 47 51
93 92 92 87 87 89 89 92 92 90 89 92 90 86 82 77 75 70 72 75 72 86 93 86 81 65 56 51 36 33 35 34 35 34 30 26 24 23 21 22 22 20 19 20 19 18 21 21 20 19 18 18 16 12 10 10 10 10 9 8 8 9 9 6 5 7 8 6 5 6 9 9 7 6 7 6 7 11 17 19 15 18 22 18 29 44 44 49
93 93 92 90 90 91 92 93 93 94 93 94 94 87 77 72 70 67 68 65 64 81 89 83 75 60 52 44 34 36 34 32 31 28 27 24 22 21 18 20 21 19 19 20 19 20 21 21 21 21 19 18 17 17 14 12 11 10 11 11 9 10 9 5 5 8 7 6 5 6 9 8 7 7 7 6 7 10 13 18 15 16 22 21 27 38 43 47
90 89 90 92 93 92 93 93 93 95 94 94 93 83 73 67 68 68 60 57 59 65 73 71 58 49 47 37 31 32 26 24 25 23 24 22 20 18 17 19 20 19 18 19 19 19 20 21 21 20 19 17 17 20 19 17 14 10 12 13 11 10 8 6 6 7 7 6 5 6 8 8 7 6 5 6 7 9 12 18 16 13 20 24 26 34 42 47
88 90 91 90 91 92 92 93 94 95 94 94 88 76 67 61 66 66 57 60 63 59 61 51 36 37 40 32 28 25 18 20 23 21 21 21 21 18 17 17 17 17 16 16 18 19 20 21 21 20 18 17 16 18 22 24 18 13 13 13 11 9 8 7 6 7 7 6 6 6 6 7 7 5 5 6 8 10 15 19 17 12 17 25 27 31 40 45
89 93 93 89 89 91 92 93 94 95 94 92 83 71 61 56 65 70 63 64 59 54 55 44 39 44 38 31 28 23 18 20 21 21 21 20 19 17 17 17 16 16 16 17 18 19 21 20 21 22 19 18 16 17 23 23 17 15 14 14 11 9 8 7 5 6 6 7 7 6 6 7 6 5 5 5 7 12 18 20 16 11 14 24 27 28 36 43
91 91 92 91 89 89 92 95 94 94 93 87 78 66 54 54 67 71 62 52 45 47 50 45 47 45 34 27 23 20 19 22 24 24 23 20 17 18 19 18 17 17 18 18 19 20 21 22 24 23 21 19 16 16 18 16 13 12 11 13 11 9 8 7 5 4 6 8 8 6 7 7 6 5 4 7 11 15 20 19 14 11 13 23 27 26 33 41
92 91 94 94 91 91 93 94 94 95 88 82 74 54 42 47 54 55 50 42 37 36 35 33 35 32 26 25 22 20 20 22 25 23 23 20 18 19 17 16 16 18 18 16 17 18 20 25 27 24 20 17 15 14 13 12 12 10 10 11 10 9 8 6 5 4 5 8 8 7 7 6 7 6 5 14 21 21 21 18 12 11 14 21 25 26 33 39
93 92 92 93 92 93 94 93 95 91 80 82 76 48 33 40 45 46 48 44 36 32 30 28 28 28 27 26 25 23 23 25 23 20 22 19 18 19 16 15 16 18 18 14 13 15 21 27 25 20 16 14 14 13 13 14 13 11 10 10 9 10 8 6 5 4 5 7 9 7 7 7 7 7 5 10 20 24 22 18 13 13 14 17 22 27 33 38
95 93 91 93 92 92 93 92 89 82 79 81 68 43 32 39 46 48 51 53 44 36 35 32 29 29 29 28 27 26 26 28 23 18 19 18 18 20 16 15 17 16 15 13 12 15 24 28 21 16 15 13 13 13 14 15 14 12 11 10 9 9 8 6 6 5 4 7 10 8 7 8 7 7 5 4 13 22 21 17 14 13 12 15 20 27 34 40
97 95 93 93 93 94 93 88 82 80 84 75 52 39 37 41 51 52 55 63 54 37 30 30 31 29 27 26 26 26 27 26 23 17 16 18 19 19 17 14 15 14 12 13 13 14 21 23 19 16 14 13 14 13 14 15 14 13 12 11 11 9 8 8 6 5 5 7 9 8 7 9 7 7 7 4 11 21 21 18 15 12 12 14 19 26 34 43
98 97 95 93 94 94 89 85 81 75 74 62 45 43 45 50 58 59 61 63 53 39 27 22 25 24 24 26 26 27 26 24 21 18 17 20 19 18 18 14 13 14 12 12 12 12 14 14 15 16 14 14 15 14 14 15 15 14 12 11 12 10 7 8 7 5 6 7 8 7 8 10 8 7 7 5 11 20 22 20 16 13 12 13 20 27 33 42
97 97 97 96 95 93 89 87 77 63 60 53 45 48 54 59 62 60 63 62 49 37 26 21 22 21 23 27 28 25 24 24 21 18 19 20 19 17 17 15 13 14 13 11 11 11 11 9 11 15 16 13 15 16 14 14 15 15 13 10 10 10 7 7 6 6 9 10 8 7 9 11 8 7 8 6 10 18 21 20 19 14 12 15 21 29 34 40
95 97 99 99 97 97 90 76 67 62 59 51 47 54 59 62 65 61 62 65 52 33 26 25 23 23 25 25 24 23 27 28 20 18 19 19 18 17 17 16 13 12 12 10 10 10 10 9 9 13 16 14 15 16 13 12 15 16 13 9 9 9 8 8 7 7 10 11 8 6 9 11 9 7 7 6 8 16 21 20 18 16 15 18 23 30 35 38
96 97 100 100 99 101 89 70 67 65 55 49 49 55 59 61 65 62 66 71 50 26 26 28 23 26 25 21 22 27 33 29 20 18 18 18 18 17 20 20 16 13 10 10 13 11 10 11 10 12 16 18 17 16 13 11 14 15 11 9 10 9 8 8 7 7 8 9 8 6 7 9 9 9 8 7 8 15 22 21 18 18 18 21 25 30 34 37
98 96 99 101 97 98 95 84 77 62 51 52 51 55 61 62 59 59 74 78 45 21 25 26 25 27 23 20 23 27 28 24 24 23 17 18 18 17 21 21 18 16 11 13 16 12 10 11 11 12 16 20 18 13 12 11 12 13 9 9 11 10 9 8 7 7 7 9 10 8 7 8 10 10 9 8 9 14 22 23 20 20 19 22 27 29 33 37
94 96 98 100 92 89 98 94 79 65 57 56 56 61 62 62 60 61 73 69 37 22 26 25 27 27 23 23 25 26 26 24 26 22 17 21 20 17 21 20 18 18 13 15 16 11 10 11 10 11 16 20 18 13 11 11 12 11 9 10 11 10 10 9 8 8 9 12 14 9 7 10 12 11 9 10 9 13 21 23 21 21 20 22 25 26 31 35
86 92 93 98 90 81 88 86 75 70 63 57 60 63 61 63 67 72 78 65 36 25 26 29 31 27 26 30 31 30 31 30 27 23 22 23 21 19 19 16 17 20 16 15 17 14 11 11 10 12 17 18 15 12 10 12 13 10 10 10 10 10 10 10 10 8 11 17 16 9 7 10 12 9 8 10 9 12 20 22 21 20 18 20 24 25 29 32
73 81 84 95 92 76 70 67 67 67 62 61 63 61 64 67 65 70 70 51 36 34 31 30 31 29 31 37 38 33 32 33 30 29 31 29 27 25 22 21 21 24 25 22 22 19 15 16 14 13 18 18 15 13 12 13 12 10 10 10 11 14 12 13 13 11 17 21 14 8 7 9 11 9 6 8 10 12 18 21 22 21 18 19 24 24 27 30
63 74 82 94 95 83 69 61 65 68 63 65 66 59 63 70 69 66 54 41 44 46 39 36 37 39 43 45 45 40 36 38 34 33 35 34 35 31 26 26 24 29 34 29 28 27 20 18 17 16 19 19 18 17 16 14 11 10 11 12 16 19 19 21 18 15 19 18 12 8 7 9 10 8 6 7 11 15 17 19 20 19 18 19 22 23 25 27
62 76 87 92 89 84 76 70 71 73 68 67 65 59 65 79 75 56 45 48 53 46 42 49 53 57 64 65 57 45 40 41 40 42 38 35 40 37 28 23 20 27 32 27 29 33 28 22 19 21 22 20 20 20 20 17 13 13 12 13 18 20 25 28 21 18 20 16 11 8 8 12 13 10 7 6 9 15 17 16 17 17 18 19 20 21 24 24
66 79 86 87 81 78 78 76 76 75 72 67 66 70 81 87 70 50 52 58 55 49 49 60 71 75 76 75 65 51 47 47 42 45 44 41 47 46 37 26 19 22 27 33 39 36 34 32 25 24 23 21 21 19 19 16 12 13 10 11 17 17 22 26 20 20 21 16 12 9 12 16 16 13 9 6 8 13 16 15 14 15 16 17 19 21 21 23
70 79 84 86 82 80 80 77 76 77 75 70 72 82 87 81 65 59 66 63 60 65 65 68 83 88 78 69 62 52 52 54 44 40 45 48 50 48 39 28 21 20 28 47 53 37 32 30 21 21 20 18 21 18 15 15 14 13 9 10 16 14 15 19 18 18 18 18 16 14 16 14 15 17 11 6 8 12 16 14 12 15 16 18 21 20 20 24
69 72 76 79 74 76 79 77 77 79 76 75 81 81 72 66 61 61 64 65 74 86 86 78 78 86 81 67 59 54 52 52 45 42 45 47 47 40 29 22 21 21 27 48 55 37 29 26 17 17 19 16 18 18 15 15 15 14 10 12 13 9 12 17 20 20 20 21 20 17 16 13 13 17 13 9 9 13 18 15 12 16 18 20 22 21 21 26
65 62 63 65 66 73 78 77 78 78 74 80 88 78 59 55 55 54 60 70 81 91 95 88 76 79 80 66 60 63 58 50 43 45 51 49 43 33 23 22 22 20 23 41 52 36 23 23 17 15 21 18 14 16 16 13 13 13 11 11 10 8 12 15 20 25 25 23 19 16 17 16 15 17 16 12 10 14 19 16 14 16 18 20 20 19 20 26
64 60 60 62 66 73 79 80 78 76 76 84 89 77 60 56 52 50 61 73 83 93 96 91 83 81 76 65 61 57 49 46 42 43 49 47 38 27 21 24 25 23 23 33 49 40 22 23 20 15 19 19 13 16 20 16 11 10 10 8 10 14 17 17 20 26 27 24 20 16 16 17 17 17 18 16 12 15 19 17 15 15 17 18 18 17 19 25
60 55 62 69 67 71 81 80 74 75 81 84 80 66 55 54 49 46 61 76 86 96 94 84 82 84 79 69 63 51 39 37 35 34 36 34 32 26 20 24 27 26 25 30 42 38 24 26 25 16 16 17 16 18 24 23 13 9 10 8 9 14 16 17 18 20 22 22 20 20 19 18 16 16 19 18 15 18 19 17 15 14 15 17 17 18 19 25
53 48 64 73 68 71 80 78 75 79 81 75 67 61 53 51 49 46 60 78 87 91 91 87 84 86 82 72 66 59 43 30 25 28 27 23 29 29 21 22 28 28 26 30 35 32 32 40 33 19 17 20 21 21 22 24 17 12 14 11 10 12 12 15 16 14 16 18 19 24 25 21 14 12 17 18 16 17 17 14 13 12 13 15 17 20 22 29
50 48 64 74 70 72 78 83 83 78 73 64 58 60 54 50 54 52 54 72 85 84 85 93 93 89 85 76 68 60 45 30 23 25 23 18 24 29 21 20 29 31 29 29 29 28 38 48 36 21 20 23 21 18 17 19 16 12 13 12 10 11 12 17 20 15 12 15 18 21 23 20 14 11 14 15 15 15 14 13 13 12 14 18 21 24 27 34
48 44 60 74 73 73 79 81 71 63 66 62 52 52 52 52 58 55 47 61 84 86 82 91 96 91 84 75 67 57 44 34 24 22 23 17 19 25 21 19 25 27 27 27 24 24 34 42 34 22 19 20 18 16 16 17 13 10 11 9 9 11 13 18 23 19 14 13 14 15 17 18 14 11 12 14 15 14 12 14 14 14 19 22 25 27 30 36
42 44 63 75 72 74 81 68 46 44 54 51 45 45 47 51 54 49 42 53 79 92 91 91 95 92 81 72 70 61 47 38 28 21 21 17 16 21 20 20 22 21 23 25 21 21 32 37 30 22 17 14 15 15 15 16 14 12 12 9 9 10 12 15 17 17 17 14 13 14 17 18 16 13 11 13 15 14 13 14 14 16 20 21 23 27 31 36
42 42 52 69 73 71 71 56 42 47 47 41 46 48 45 46 45 43 43 47 68 94 99 93 95 97 85 74 74 65 50 46 36 22 18 17 15 17 18 18 21 20 23 27 23 24 38 36 23 24 26 22 22 22 20 19 16 15 14 11 10 9 10 13 13 15 18 16 15 17 18 19 19 17 13 12 13 13 13 13 13 16 20 21 22 24 28 35
46 37 33 53 68 63 57 49 49 54 46 42 52 51 46 43 36 36 42 42 57 87 99 90 90 99 92 78 75 65 49 48 42 23 15 16 14 15 16 16 20 20 21 26 24 26 40 40 25 25 31 30 32 31 26 24 20 17 15 11 10 9 10 14 15 17 20 17 16 18 17 17 19 18 16 15 14 14 14 14 14 16 16 16 18 24 32 39
42 37 32 39 48 47 44 44 48 49 43 48 56 49 43 42 34 32 37 40 50 74 94 95 89 96 97 87 81 65 43 39 37 24 17 17 16 15 14 15 18 19 20 26 26 24 35 42 38 37 33 28 28 24 19 21 21 20 18 13 11 11 10 14 16 17 19 17 15 16 17 20 20 17 17 16 14 15 17 16 18 23 24 21 20 29 39 43
32 35 40 44 44 36 31 32 39 42 40 47 52 44 40 41 37 35 36 41 45 55 80 96 93 94 96 90 83 67 45 37 35 27 21 18 17 14 13 14 17 18 23 26 23 25 35 38 40 47 41 25 20 17 14 16 19 18 18 15 14 13 12 15 17 16 16 17 17 16 18 21 19 16 17 17 16 18 19 19 20 24 30 32 32 38 43 43
33 36 42 53 53 42 35 37 39 40 39 42 42 39 41 43 43 44 42 41 41 43 61 84 91 95 96 89 83 69 49 42 41 34 28 22 16 15 14 14 15 18 22 22 18 26 37 36 34 43 43 27 20 18 13 12 15 15 16 16 15 14 14 16 17 16 16 18 19 16 18 20 18 17 18 18 20 22 22 23 22 23 27 29 31 36 38 36
45 44 42 51 55 49 46 45 42 40 37 36 36 37 44 49 47 46 42 41 45 44 51 68 75 82 89 85 80 69 48 41 43 40 38 33 21 17 18 18 16 16 17 22 22 24 33 38 37 38 36 27 23 21 15 12 13 14 13 15 14 14 15 16 15 15 16 18 17 15 16 18 16 16 18 19 20 21 22 24 24 26 30 29 29 33 32 30
55 54 53 60 62 53 46 39 35 35 31 31 38 42 48 50 46 43 40 43 51 49 51 63 62 62 75 76 70 65 50 43 47 44 42 41 29 20 20 19 18 16 17 22 27 29 35 39 36 33 34 31 25 21 18 15 14 14 13 12 13 14 15 16 16 17 18 18 17 16 17 17 13 14 21 24 22 21 23 25 24 24 29 32 33 33 31 30
54 57 61 70 68 54 43 35 29 29 29 32 40 45 48 47 42 42 40 38 44 47 48 56 54 58 79 81 68 62 54 50 52 45 39 39 32 22 19 17 17 20 21 22 27 36 41 38 35 34 35 34 28 25 25 23 20 20 18 15 15 16 18 18 17 18 20 20 19 19 18 15 12 15 23 25 23 21 22 25 27 26 27 32 35 33 30 33
55 57 55 60 62 50 39 33 28 29 35 39 40 40 44 44 39 42 45 39 37 39 41 47 49 59 79 82 65 55 52 47 45 40 35 33 28 24 21 19 18 19 22 24 28 36 38 37 43 48 45 41 36 32 30 29 29 30 24 18 17 16 17 18 16 16 18 19 19 19 17 15 14 16 20 19 19 24 27 25 26 27 27 31 35 35 34 36
Wind_Speed
13 14 14 14 15 15 15 15 15 15 16 17 17 17 17 17 17 17 17 16 16 17 18 19 19 20 21 23 26 26 27 25 20 17 10 2 2 5 6 7 10 10 10 11 12 12 13 14 14 15 13 11 10 10 15 15 12 11 10 13 15 15 18 15 16 17 14 17 14 10 14 13 11 11 9 7 8 14 11 7 6 3 1 3 8 16 20 20
14 14 14 15 15 15 15 15 15 16 16 18 18 18 17 17 17 17 17 17 16 16 17 18 19 20 21 23 26 26 26 23 20 18 6 5 7 8 6 6 9 7 9 13 12 12 12 12 14 15 12 10 10 12 14 14 14 12 11 14 16 17 18 17 19 19 17 18 16 14 15 14 14 15 11 11 12 15 14 10 9 8 6 7 8 15 19 19
14 14 15 15 15 15 15 15 16 16 17 18 18 17 17 17 17 16 16 17 17 17 17 18 19 21 21 23 25 24 24 22 19 8 5 5 8 6 3 7 8 5 9 14 13 13 13 13 14 14 13 11 11 14 15 14 15 14 14 14 17 19 20 20 22 21 20 19 19 17 13 14 14 15 14 13 12 15 14 11 11 11 9 10 10 13 17 19
15 15 15 15 16 16 16 17 17 17 18 18 18 17 17 17 17 17 17 17 17 17 17 17 18 19 20 23 24 23 22 19 8 5 7 3 8 7 4 8 9 8 12 14 13 14 14 14 15 14 13 12 13 15 16 16 14 14 16 17 19 20 21 23 24 22 21 19 19 19 16 15 13 12 14 14 13 12 13 12 13 15 13 14 14 15 16 17
16 17 17 17 17 18 18 18 18 18 18 17 17 17 17 17 17 17 17 17 17 18 18 17 18 18 19 21 22 22 18 9 2 9 4 2 5 6 7 11 11 11 13 14 13 14 14 14 14 13 12 12 14 15 17 20 17 14 19 24 23 22 21 22 24 23 21 20 21 22 21 17 11 11 15 18 16 11 12 13 12 14 13 17 15 16 16 15
17 17 17 18 18 18 19 19 18 17 17 17 17 17 17 17 17 18 17 17 17 17 18 17 18 18 19 21 22 18 11 5 3 7 3 2 4 5 12 15 13 12 14 14 12 12 12 14 14 13 12 13 17 18 18 21 20 15 18 25 26 26 24 20 21 23 22 21 23 22 19 17 14 13 15 19 19 13 16 13 4 6 7 16 12 14 16 15
17 17 17 17 18 18 19 19 18 18 18 18 18 18 17 17 17 17 17 18 17 17 17 17 17 18 19 21 20 12 10 10 2 8 3 4 5 8 13 16 14 12 13 13 11 11 12 14 15 14 13 14 17 20 20 20 22 20 19 23 26 28 27 24 22 21 22 23 25 23 17 19 21 15 13 18 19 14 17 13 3 5 1 12 12 13 15 14
17 17 17 17 18 18 18 18 18 18 19 18 18 18 17 17 17 17 18 18 17 17 17 16 17 17 17 17 14 8 8 7 4 8 1 4 6 9 12 13 11 11 11 12 11 10 12 15 17 15 14 15 16 19 21 20 21 23 23 22 23 25 26 26 26 24 23 21 21 23 21 22 21 17 14 16 17 15 18 14 7 6 4 7 11 12 13 13
17 17 17 18 18 18 19 19 19 19 19 18 18 18 17 17 17 17 17 18 18 18 17 16 16 15 15 13 10 8 4 2 5 3 2 5 10 12 12 11 10 9 11 12 11 12 12 13 16 16 15 16 17 18 20 19 17 20 24 23 21 22 25 25 25 28 26 17 16 22 25 23 20 19 16 17 17 14 17 15 7 7 6 7 8 11 12 13
17 17 18 18 18 19 20 20 20 19 19 19 19 19 18 17 18 17 17 19 19 18 16 14 14 14 13 11 9 7 1 3 1 3 6 10 13 12 11 10 9 10 12 12 11 12 12 12 13 14 15 15 16 18 20 19 16 18 22 24 26 23 23 24 22 27 28 22 20 22 24 25 22 18 14 17 17 14 16 13 9 7 8 9 9 10 11 12
17 18 19 19 19 20 20 21 21 20 20 19 19 20 18 18 19 19 19 20 19 18 16 13 13 12 12 10 8 6 1 2 5 8 11 13 13 12 11 10 9 11 12 12 12 12 13 15 13 10 11 12 15 17 18 20 18 19 22 21 27 24 21 24 22 23 24 22 25 22 21 25 23 20 18 17 15 15 15 10 9 9 11 11 10 10 10 10
18 19 19 19 19 20 20 21 21 21 21 20 21 21 20 20 21 21 22 21 19 17 15 13 11 10 12 10 10 13 10 11 13 13 14 13 13 12 11 11 11 12 12 12 12 11 12 15 15 12 10 10 13 13 12 18 18 19 22 17 19 21 21 27 24 19 19 19 23 21 18 23 24 24 24 20 15 15 14 11 11 12 13 12 10 10 9 10
19 20 20 20 20 20 20 21 20 20 21 22 22 22 21 22 22 22 22 21 20 17 15 13 10 11 12 9 10 16 17 16 16 15 14 12 12 11 11 11 11 12 13 13 13 11 9 11 15 15 13 11 11 9 6 12 16 17 19 14 13 15 18 26 23 19 22 20 20 19 15 19 25 26 25 20 17 15 14 15 16 13 12 12 10 10 10 11
19 20 20 21 21 21 20 20 20 20 20 22 23 23 23 23 23 23 23 22 20 16 13 11 11 11 10 11 14 17 17 16 15 15 14 11 10 10 10 10 10 12 12 14 15 12 9 10 13 13 13 13 10 11 10 10 13 14 16 14 12 11 14 23 23 22 24 19 21 21 14 17 22 24 24 20 18 19 17 18 17 14 13 13 10 10 11 11
20 20 21 21 21 20 20 20 20 20 21 22 24 23 24 24 23 22 22 19 16 12 10 9 11 10 9 12 13 12 13 13 13 12 9 8 8 8 7 7 8 11 11 12 14 13 11 10 12 10 11 14 12 13 12 10 11 13 14 13 13 11 13 21 23 23 24 19 23 23 15 18 20 21 23 20 20 21 20 19 19 17 15 14 12 12 11 11
20 21 22 21 21 20 20 21 22 23 23 23 24 25 25 24 22 21 17 13 10 8 7 9 10 10 9 7 3 5 10 9 7 7 6 6 6 7 8 8 10 12 13 12 13 12 12 11 10 10 10 13 13 11 9 9 11 12 13 13 14 16 14 16 20 26 27 21 23 25 18 15 17 20 22 20 22 23 20 20 21 18 16 15 12 12 11 11
20 21 22 22 21 20 21 22 23 23 22 24 26 26 24 19 17 16 11 5 6 4 7 10 9 8 9 5 4 6 9 7 5 4 7 7 7 10 11 10 11 12 13 13 14 12 12 11 8 9 10 11 12 12 11 11 11 11 13 13 17 20 17 15 18 24 29 25 24 28 23 18 17 19 21 22 24 24 21 20 20 18 17 15 13 12 12 12
21 21 21 22 21 21 21 22 23 23 23 26 26 25 22 16 14 13 8 5 6 6 7 9 7 6 6 6 7 6 3 4 4 6 9 10 12 13 12 10 9 9 10 11 13 13 11 10 9 9 10 11 12 13 13 14 15 15 15 14 16 20 20 19 18 18 26 28 26 27 25 23 22 19 21 22 22 22 21 19 19 19 18 16 14 13 13 13
21 21 21 22 22 22 22 22 23 22 24 27 25 24 21 13 10 12 11 8 6 6 6 4 7 8 7 7 9 8 6 5 6 9 13 14 13 12 11 11 9 10 10 8 12 14 10 9 10 11 10 13 16 16 18 19 21 22 20 17 16 17 17 20 20 18 24 25 26 26 24 24 24 22 20 15 16 19 19 19 17 18 18 16 15 14 14 15
21 21 21 22 22 22 22 22 23 22 25 25 21 20 13 6 4 5 6 7 9 11 13 10 10 14 15 12 12 12 10 9 10 13 15 13 11 11 11 11 11 10 11 10 11 13 12 10 11 12 14 17 21 22 23 23 24 24 20 18 18 16 16 19 21 20 23 20 22 26 25 22 23 23 21 15 17 18 20 20 18 17 17 15 16 16 16 15
22 22 22 22 22 22 22 23 23 23 23 19 14 12 7 7 8 6 6 11 15 17 18 17 16 17 17 16 15 14 11 11 13 14 14 13 12 11 9 11 12 10 11 14 12 11 12 13 13 16 19 20 22 24 24 23 25 23 18 17 17 15 17 19 20 21 22 17 18 25 24 22 22 23 23 20 20 20 21 21 19 19 17 15 17 18 17 14
23 23 22 22 22 22 23 24 24 22 18 11 8 9 8 9 8 8 10 12 15 18 18 18 18 17 15 16 16 12 10 11 12 13 13 12 11 10 9 11 13 11 12 14 11 10 12 13 17 19 20 21 21 21 23 24 24 20 17 18 16 15 16 18 20 23 21 14 15 23 22 19 22 22 23 23 20 19 21 21 20 19 18 16 16 17 17 15
23 23 22 22 23 23 23 25 22 15 10 9 9 10 9 9 8 9 9 9 13 16 15 14 14 12 12 13 10 9 11 11 10 9 11 12 11 11 10 11 13 13 13 13 12 11 11 13 19 21 20 21 21 21 23 22 19 17 17 16 14 16 17 14 17 22 18 13 14 20 18 15 18 19 21 22 21 19 20 22 21 19 19 17 17 16 17 17
23 23 22 22 23 23 24 24 16 7 6 9 9 7 7 8 8 9 8 8 11 11 9 7 8 9 8 5 5 10 10 8 8 6 9 11 11 10 12 13 13 13 13 15 16 14 14 15 19 23 22 21 20 21 22 17 14 17 21 17 14 19 21 17 17 17 14 14 17 18 14 12 17 19 19 19 21 21 21 22 22 20 18 17 17 16 16 18
23 23 23 23 23 23 24 19 9 6 7 8 7 7 7 7 8 9 8 7 8 6 6 5 5 7 5 3 5 8 9 8 10 8 7 11 11 9 10 11 10 13 15 18 17 14 15 18 18 20 22 22 20 20 21 18 13 16 22 23 19 21 23 21 20 18 12 12 17 19 12 10 16 21 20 18 19 21 21 22 23 20 19 18 16 16 16 17
24 23 24 23 22 23 19 9 5 8 8 6 6 7 6 7 7 7 6 5 5 3 7 7 6 5 6 7 8 7 9 8 9 9 10 11 12 10 10 8 8 13 15 15 13 9 12 18 20 19 21 23 22 19 22 21 14 12 20 25 23 22 21 21 22 19 13 11 16 20 13 8 13 18 20 19 20 22 21 22 23 20 19 18 16 16 16 17
24 24 25 24 22 19 12 6 8 9 6 6 7 6 7 7 7 6 4 4 4 2 5 4 3 3 4 6 9 8 6 2 4 10 12 10 10 11 11 10 9 11 12 10 9 8 12 19 20 20 21 21 19 17 21 24 17 12 19 25 22 21 20 22 23 18 13 11 14 20 17 11 10 14 19 21 21 23 23 23 23 21 20 19 18 17 17 18
25 26 26 25 21 12 8 9 9 6 5 8 7 5 6 7 7 4 4 5 2 1 3 3 3 2 4 6 9 11 8 5 5 7 9 10 10 10 12 13 14 14 12 11 10 10 15 19 20 22 20 15 16 18 21 24 18 15 21 24 21 20 18 18 20 16 14 13 12 17 19 13 9 12 18 23 22 23 25 25 23 22 22 21 20 18 18 18
27 27 27 24 15 4 5 9 9 7 6 7 6 5 6 7 6 3 4 4 0 1 1 2 3 4 7 8 10 12 10 9 7 4 7 10 10 10 11 12 15 17 14 13 14 13 14 17 19 20 17 13 17 22 23 22 18 17 20 21 21 22 18 16 15 15 15 14 12 17 20 13 10 12 15 19 21 22 22 22 22 22 23 22 20 19 19 18
29 28 24 19 10 2 3 7 8 8 7 6 6 7 7 6 3 4 5 3 2 1 2 3 3 4 7 8 9 11 11 11 9 6 8 9 11 12 11 11 13 13 13 14 16 17 15 15 16 17 15 14 18 22 22 21 20 20 19 18 19 19 17 14 12 13 14 12 15 21 22 17 12 11 13 15 18 20 18 18 20 22 23 23 21 19 19 18
31 26 18 10 7 4 4 4 3 5 6 6 6 6 7 5 3 5 4 2 4 2 2 4 5 4 7 10 9 10 11 11 11 11 10 8 10 12 10 10 9 8 10 11 13 18 18 16 13 14 16 16 17 18 19 22 24 20 17 16 15 13 14 13 11 12 11 11 17 22 24 21 14 11 14 16 18 21 20 19 22 24 24 22 20 20 18 18
29 19 9 4 6 5 5 5 6 6 4 4 5 5 5 4 3 5 4 2 3 1 1 4 5 5 9 12 12 13 13 11 10 12 12 9 9 10 11 10 8 8 10 10 12 14 15 16 15 15 17 17 15 13 16 20 21 19 16 15 14 11 12 13 13 11 11 12 17 22 23 19 13 12 15 17 20 21 20 20 22 24 24 22 22 21 18 18
22 9 3 3 4 5 5 6 5 4 2 2 5 4 4 4 4 6 7 4 3 2 2 4 6 8 10 11 12 13 12 10 10 11 12 11 10 11 14 14 13 11 9 9 11 9 10 14 17 17 15 17 17 12 12 15 17 17 16 14 13 11 11 14 13 11 12 13 17 22 20 14 11 14 17 17 18 21 20 19 21 23 24 23 22 22 19 19
11 2 2 4 5 5 5 5 3 3 3 3 4 4 5 6 6 9 10 7 6 7 6 4 4 8 11 11 11 11 10 9 9 9 9 10 10 9 12 16 18 14 8 7 8 9 12 12 14 17 13 16 19 14 13 15 16 17 17 15 13 11 11 13 12 12 14 13 17 20 16 13 11 10 16 19 14 18 20 18 20 22 22 21 21 21 20 20
2 1 2 5 5 3 3 4 3 4 5 4 4 5 5 6 6 7 7 6 7 8 8 7 4 8 11 12 12 12 9 7 8 9 8 9 10 9 11 13 16 14 8 6 6 9 15 12 14 17 15 17 19 15 16 17 15 15 16 15 13 12 11 10 11 12 12 11 13 13 10 12 9 2 10 18 13 15 18 19 20 21 22 21 19 20 19 18
4 4 4 5 3 2 3 4 4 5 6 5 4 5 5 5 6 6 6 6 7 8 9 10 8 8 8 8 8 8 9 7 6 6 7 9 10 12 13 10 12 14 11 7 6 8 12 10 14 19 17 18 19 16 17 17 13 13 15 14 13 15 12 10 10 9 8 11 10 9 9 12 10 3 7 16 16 16 17 18 21 21 22 22 18 18 18 17
7 6 5 4 3 3 3 3 4 6 5 4 5 6 7 7 9 9 9 9 10 7 6 7 4 3 5 5 3 3 7 8 6 4 5 6 8 13 14 8 10 15 13 9 8 8 9 8 13 19 18 19 19 18 18 18 15 12 14 15 15 16 12 9 9 7 9 11 9 12 15 13 11 9 9 15 17 18 18 18 20 20 22 22 19 18 18 18
7 6 5 2 2 3 2 4 5 6 4 4 7 9 8 9 12 13 10 10 10 5 5 6 2 2 4 5 3 2 6 5 4 4 5 6 6 9 11 9 10 13 13 12 8 8 9 7 11 19 20 18 18 17 15 18 20 16 14 16 14 12 11 9 8 9 11 11 9 14 17 13 11 9 11 15 16 17 19 19 19 21 21 20 19 19 20 19
6 5 3 2 2 2 2 4 5 5 4 4 7 7 8 11 14 14 10 9 8 4 5 6 4 3 5 6 6 5 5 4 3 3 4 6 4 5 8 8 9 11 12 12 10 9 9 5 8 17 20 17 15 14 11 12 18 17 15 15 12 9 9 9 8 8 10 10 10 13 13 11 11 10 13 17 16 17 20 19 18 20 20 18 17 18 18 18
6 5 1 4 2 1 3 4 5 4 4 5 7 8 10 13 14 15 11 5 3 4 4 5 4 3 5 7 8 6 5 5 5 3 2 4 3 4 8 7 6 9 12 14 13 9 5 3 5 14 19 15 11 11 12 12 13 14 13 14 12 9 8 9 9 8 10 10 10 10 10 9 9 9 13 16 17 18 19 18 17 18 19 18 17 16 16 16
5 5 1 3 2 1 4 4 5 4 5 6 8 9 11 14 14 17 14 3 3 5 6 5 5 4 5 6 7 6 6 6 5 2 1 5 5 3 5 7 6 9 13 13 12 7 3 3 6 11 13 12 11 12 15 16 16 14 12 13 13 11 10 10 9 9 10 10 9 8 9 8 7 10 13 14 15 16 18 17 16 16 18 18 16 16 17 16
6 5 3 5 1 1 4 5 4 5 5 6 9 10 12 13 13 16 15 4 2 3 5 5 4 5 6 7 8 8 6 5 3 1 1 5 5 2 2 8 9 10 9 8 8 7 3 4 7 10 10 10 13 15 16 18 19 16 13 14 14 12 11 9 9 9 10 11 11 10 8 5 4 9 12 12 12 14 16 17 15 16 17 17 16 15 16 17
5 4 6 8 3 2 5 6 5 3 4 9 13 14 13 12 12 14 16 10 3 1 2 3 3 4 5 6 8 8 6 4 3 1 2 5 4 0 3 10 10 9 7 6 7 7 2 3 8 9 8 11 14 16 16 17 18 14 12 13 14 14 13 10 8 8 8 10 11 9 8 5 3 3 8 11 13 13 14 15 15 14 15 17 18 17 16 17
4 4 3 8 5 2 5 6 7 7 9 12 15 16 13 10 11 14 16 14 6 1 2 4 2 3 5 6 8 9 7 4 2 0 3 5 4 3 7 12 9 8 5 3 2 4 2 4 7 9 8 10 12 13 13 14 13 10 11 14 16 18 17 12 8 6 7 10 9 7 7 6 6 4 6 9 13 14 13 14 15 14 15 16 17 17 16 15
5 5 0 6 7 4 5 4 6 8 11 15 16 16 14 10 11 14 15 14 7 2 2 4 2 3 5 8 9 10 8 2 1 2 4 4 4 4 8 11 9 9 6 4 7 2 0 5 4 6 8 9 9 9 10 10 10 9 13 17 17 18 18 13 8 7 8 10 10 7 4 7 9 9 8 8 12 13 12 12 11 11 13 16 16 15 15 14
5 3 5 2 4 4 6 5 5 7 10 13 13 13 16 14 13 13 12 11 8 2 4 3 3 2 4 6 7 9 6 4 2 2 4 4 3 5 8 10 11 11 4 2 7 5 2 4 4 3 3 7 10 12 13 11 11 12 17 19 17 17 18 15 9 8 8 9 10 7 4 8 11 12 12 11 11 9 9 10 10 7 7 9 11 13 14 14
4 3 6 6 3 4 4 3 5 8 10 12 10 11 16 17 15 13 10 8 10 7 2 5 2 1 3 4 5 7 5 4 2 3 5 5 3 7 9 10 12 10 2 2 7 6 3 3 3 4 6 5 5 11 18 17 14 15 17 19 19 19 19 17 13 11 9 7 9 9 7 8 11 12 11 10 8 7 6 7 9 9 8 8 9 11 13 14
5 3 4 6 4 5 7 8 9 11 13 12 9 12 16 18 16 14 10 8 10 10 4 1 4 5 7 7 5 5 4 4 2 4 4 4 4 8 10 10 11 10 6 6 8 5 4 4 4 5 6 4 3 3 13 17 16 16 16 17 19 20 19 18 16 14 11 8 9 11 10 8 9 12 11 9 7 7 7 6 4 6 10 12 11 11 13 15
5 4 4 6 5 8 10 11 12 13 13 10 8 11 15 17 17 14 12 12 12 11 9 7 6 4 5 9 6 4 4 3 4 6 5 4 5 7 8 8 8 10 9 8 6 5 5 4 3 5 5 4 4 5 8 13 15 17 18 17 19 19 18 17 15 14 14 10 8 9 11 10 8 10 11 8 5 6 7 6 5 6 9 12 13 14 15 17
4 4 5 6 7 9 10 10 11 11 10 8 8 11 14 16 18 16 14 13 14 12 12 12 15 13 5 7 7 6 5 2 2 5 5 6 6 5 6 5 5 8 9 7 5 4 3 3 4 4 3 5 8 8 8 10 12 14 17 18 18 18 17 17 15 14 13 12 11 11 11 12 9 7 10 6 2 3 4 4 5 6 8 13 16 17 17 18
7 4 5 6 7 8 8 10 10 9 8 8 9 12 14 17 19 18 16 11 10 13 14 16 19 14 2 7 6 6 8 7 6 4 5 7 6 4 4 3 3 6 8 7 4 2 3 4 5 4 4 4 7 7 8 8 9 12 15 17 18 18 16 15 15 14 14 14 14 14 11 9 7 6 8 4 2 2 4 5 4 4 6 11 15 17 19 18
9 6 5 6 7 8 9 9 9 8 7 8 12 14 15 18 19 18 14 8 9 13 15 17 18 11 1 3 4 6 8 9 9 6 5 7 7 6 5 4 5 5 6 6 4 3 4 5 3 3 3 3 5 5 6 8 9 10 12 15 16 17 16 15 15 16 17 15 13 11 10 7 5 6 7 5 3 1 1 2 1 1 4 8 12 15 17 17
Wind_Direction
0 359 356 354 353 351 349 348 347 346 346 345 343 341 339 339 338 337 336 335 335 333 333 333 334 333 333 332 325 328 332 322 312 300 283 237 206 257 278 322 328 324 329 309 274 265 257 244 239 230 224 220 219 225 227 225 224 222 223 232 235 234 236 232 233 240 239 240 229 195 204 206 219 220 204 213 229 245 246 215 206 179 184 58 106 127 132 140
356 356 354 351 349 347 346 345 344 344 342 342 340 339 337 335 336 335 335 335 332 331 330 330 331 330 332 329 324 333 331 314 297 287 260 196 237 252 266 325 331 327 323 299 274 259 249 242 230 219 219 222 215 216 221 218 217 220 222 230 233 234 236 235 236 242 245 245 236 211 199 193 222 240 222 211 222 233 236 226 217 203 163 100 122 137 139 146
354 353 350 348 347 344 344 343 342 341 340 339 338 338 336 334 334 333 334 333 331 330 328 330 330 329 331 326 326 335 326 305 293 282 144 189 241 229 249 338 339 327 309 294 281 265 255 255 242 223 217 223 220 213 216 215 214 220 225 232 233 231 235 237 238 241 244 246 246 233 197 181 213 239 237 228 229 231 229 224 226 218 180 141 151 157 150 153
352 350 348 347 344 341 341 340 338 339 338 338 337 338 336 334 332 331 333 331 331 328 327 331 328 328 328 323 329 334 317 297 294 99 110 250 231 206 267 335 338 325 306 294 281 267 256 256 253 239 225 222 223 216 217 215 212 219 224 233 234 231 234 235 238 241 242 244 247 244 227 206 200 220 237 238 238 236 230 221 222 224 195 164 166 169 160 158
350 348 348 345 342 340 339 337 336 335 334 334 334 335 334 332 330 329 329 327 329 328 328 329 325 328 324 322 329 325 308 293 67 104 113 294 200 210 292 312 325 323 304 295 279 260 246 243 245 240 232 226 221 217 220 216 215 222 226 234 235 234 236 232 235 240 241 243 243 240 240 235 203 204 229 233 239 241 237 231 234 235 187 155 167 171 164 164
349 347 345 343 341 339 339 337 335 331 330 331 331 331 330 329 328 327 326 324 324 326 327 326 326 326 320 322 320 306 288 293 52 125 170 300 230 264 309 304 311 312 297 291 273 251 238 233 230 229 228 228 223 220 221 216 218 227 229 232 234 235 239 236 233 235 236 239 243 236 230 244 233 215 222 229 235 238 248 253 274 280 154 139 170 176 165 169
345 343 343 342 340 338 338 336 333 329 328 330 328 328 328 326 325 325 323 321 322 324 323 324 325 323 321 324 314 285 258 282 9 123 175 305 286 305 316 302 297 293 286 284 266 243 232 227 224 224 225 229 228 225 224 220 220 228 233 231 232 234 236 240 240 236 234 232 241 239 219 233 242 229 219 228 234 230 248 254 215 285 181 145 178 178 168 171
341 340 340 339 337 336 334 332 329 327 327 328 326 325 324 323 321 320 320 319 320 319 318 320 322 322 322 322 316 290 261 273 89 104 39 333 315 312 309 296 282 272 273 277 270 252 239 228 225 224 227 229 229 229 227 224 223 227 233 233 233 234 233 235 239 241 239 233 238 240 224 225 238 243 234 231 233 223 237 243 193 228 243 167 180 172 167 171
340 339 338 335 335 333 331 330 327 325 324 323 322 322 321 319 316 315 316 314 316 316 315 316 316 319 315 307 303 294 282 87 87 75 324 317 312 308 300 286 269 263 266 267 263 256 246 232 228 227 234 235 232 233 228 226 225 224 230 236 235 236 235 231 234 239 239 238 233 231 230 229 234 245 245 236 234 225 230 232 179 180 200 185 184 171 171 173
340 338 337 335 333 332 331 329 326 324 322 321 319 318 317 315 312 312 311 310 314 312 308 308 309 313 307 294 281 275 330 90 68 314 304 305 308 303 288 275 265 262 260 259 255 249 246 242 238 234 241 246 241 236 229 228 230 228 230 236 237 236 239 232 227 233 235 234 228 222 229 235 235 237 240 233 232 236 236 223 175 174 199 194 187 177 176 174
338 336 334 334 332 330 330 327 324 322 321 320 317 315 313 311 311 311 312 310 309 306 303 302 301 300 293 285 269 259 318 301 285 305 301 302 301 289 281 271 264 258 253 256 253 248 250 251 251 246 239 239 244 243 238 237 236 236 235 236 236 234 238 235 228 231 231 228 226 224 228 235 237 232 232 228 219 229 238 220 185 201 222 209 188 181 176 175
335 334 333 332 330 328 328 325 322 321 321 319 317 316 310 309 310 312 314 310 302 299 296 290 287 287 282 274 252 248 269 286 290 296 294 295 288 277 273 263 255 251 250 252 249 247 251 250 250 249 241 234 238 243 246 243 239 237 238 237 235 231 233 234 231 229 227 224 222 223 230 234 234 228 229 230 215 212 213 214 214 213 230 222 188 185 181 177
334 333 332 330 329 327 326 324 322 321 319 318 317 315 309 310 312 312 313 305 298 294 285 281 276 272 272 267 254 255 268 280 284 288 285 281 275 269 263 254 248 245 247 251 252 253 254 251 249 246 250 252 237 239 257 246 239 234 233 235 234 229 227 227 223 217 223 225 215 216 229 231 230 228 229 227 215 205 194 209 223 210 223 229 192 192 191 179
334 333 332 330 329 327 326 324 324 322 317 316 315 313 312 313 312 313 311 303 298 289 275 272 264 260 262 265 268 265 268 277 277 274 269 259 262 269 256 236 236 239 236 243 248 254 258 254 250 246 250 257 257 256 253 238 233 229 227 229 229 229 224 218 211 209 218 218 208 213 231 233 227 225 227 220 209 212 206 209 221 208 212 222 199 199 197 185
333 332 332 332 330 328 327 325 325 323 318 316 312 312 314 312 313 313 307 301 298 283 263 255 246 250 264 269 271 262 262 269 261 250 243 241 255 271 261 236 240 245 238 237 239 242 246 244 244 242 238 243 255 257 244 231 226 218 221 221 217 226 227 212 203 208 215 209 206 214 230 235 228 224 224 213 203 214 212 207 218 214 209 212 202 202 198 188
331 331 331 331 329 328 326 325 325 323 321 317 312 314 314 313 315 310 305 301 292 270 239 234 231 240 269 295 316 247 246 244 225 213 215 233 254 278 286 276 265 253 241 234 232 232 232 232 234 236 235 231 231 238 236 229 219 211 216 219 213 218 225 214 201 205 213 211 208 214 227 233 227 228 226 210 200 210 209 207 219 217 208 209 205 202 196 187
330 331 330 329 328 326 325 325 325 324 323 319 317 316 313 313 312 303 303 296 264 222 218 247 259 254 255 278 306 267 242 217 194 214 227 233 258 283 286 270 261 251 233 223 222 222 222 223 225 227 229 225 218 221 225 219 211 205 210 220 220 217 220 219 207 200 206 213 210 214 224 230 227 225 226 216 203 203 203 207 220 219 208 205 209 207 197 190
331 331 331 330 327 325 325 324 325 325 323 320 320 317 310 305 299 285 269 239 225 221 239 253 263 263 240 235 272 288 251 219 230 248 251 253 258 268 269 258 263 256 233 219 214 213 214 213 218 222 216 216 217 214 219 217 211 208 205 214 221 219 219 218 217 198 195 208 215 215 220 227 229 225 227 223 201 192 199 210 220 219 209 200 209 215 202 194
331 330 332 330 326 324 324 324 324 325 323 322 324 318 302 284 266 253 246 238 218 239 269 227 201 243 277 277 279 277 254 249 254 253 255 256 253 251 248 248 259 252 237 223 205 204 209 208 214 222 213 210 214 213 220 221 220 219 214 217 221 221 223 219 222 209 192 203 216 218 221 221 223 227 229 212 180 188 204 212 217 214 208 197 203 215 207 198
331 330 331 328 327 324 322 323 323 324 326 326 328 320 302 281 268 236 243 263 259 270 281 268 238 256 277 284 284 276 266 262 256 254 252 244 238 242 242 240 243 239 234 233 212 198 206 217 212 216 216 212 213 217 223 225 229 232 226 226 225 225 230 220 220 215 196 200 214 217 223 220 216 223 222 187 169 196 208 209 214 211 210 204 200 206 203 198
330 328 328 328 326 323 321 322 320 322 327 324 321 323 335 350 333 325 314 291 281 279 275 272 267 267 274 279 282 283 282 273 260 256 249 234 224 233 235 224 231 230 222 232 232 206 207 224 221 216 220 219 216 218 223 228 232 237 234 230 224 221 229 220 217 216 199 196 213 217 221 220 215 219 220 200 186 199 206 209 213 211 214 210 200 201 199 194
328 327 329 327 325 325 321 319 317 320 322 312 305 320 346 353 332 325 317 294 285 278 267 265 264 262 266 268 268 268 268 263 258 249 230 216 212 220 222 212 223 232 220 223 232 220 214 226 228 222 221 223 223 219 222 228 230 235 237 231 225 220 224 220 216 214 201 193 213 215 215 220 218 216 219 211 196 200 207 210 214 214 216 211 200 199 194 185
328 329 330 327 326 325 319 316 317 315 305 299 309 318 336 344 331 319 307 288 289 282 262 251 249 248 249 251 240 225 238 244 252 242 193 193 210 216 232 230 224 232 230 221 220 223 223 224 227 229 226 222 225 222 220 225 226 231 234 226 229 228 218 214 214 210 199 194 213 215 212 220 220 213 218 212 197 199 206 210 216 217 217 211 202 200 189 180
330 330 329 328 326 323 319 317 317 310 294 298 314 335 348 340 329 322 308 283 283 279 260 242 245 246 240 243 199 203 230 235 247 247 165 186 217 211 230 245 238 233 235 232 228 230 235 229 223 228 229 222 224 223 219 221 219 226 230 220 224 229 217 209 206 199 194 199 213 218 211 215 216 210 214 209 194 198 204 208 215 215 216 212 202 200 190 180
331 330 329 328 325 323 319 314 315 337 326 308 327 9 4 333 325 325 315 287 273 246 211 202 220 227 206 184 191 213 245 241 240 244 181 197 224 219 224 238 246 242 235 235 235 235 237 236 227 227 229 223 222 222 217 218 216 221 224 218 224 229 219 212 202 192 198 203 206 216 218 207 209 209 210 205 195 200 204 207 212 211 210 209 199 198 191 182
331 330 329 327 326 325 320 316 349 343 324 317 342 355 336 325 331 325 308 283 274 196 168 183 195 180 174 194 200 222 255 244 232 231 212 215 229 238 239 225 230 243 243 240 238 240 238 237 232 229 228 223 222 223 217 216 218 218 214 214 227 232 217 212 207 199 207 209 200 209 224 216 203 207 207 203 198 199 204 208 209 205 204 204 198 194 190 186
330 329 329 326 324 324 316 327 348 329 318 346 350 329 319 329 325 313 298 267 258 186 150 174 185 160 189 201 189 215 255 268 230 218 207 211 218 230 242 237 232 235 242 246 238 232 234 236 231 225 227 225 221 220 214 213 217 221 208 206 224 235 220 212 214 211 208 213 205 202 217 233 213 202 201 203 202 199 204 208 204 201 200 199 197 192 188 188
329 328 327 324 321 315 282 290 313 311 330 346 336 320 325 327 310 291 282 280 265 148 164 157 119 142 229 229 210 232 266 295 257 207 190 205 211 218 231 237 247 247 241 245 244 230 227 234 229 219 221 226 222 218 213 212 217 224 210 202 215 231 231 224 219 217 211 215 215 200 206 227 224 203 198 199 203 202 203 204 201 199 197 196 197 191 186 188
328 326 325 322 322 312 245 265 272 276 315 329 319 320 320 311 303 267 254 273 234 152 204 157 144 189 222 234 231 242 264 271 259 180 179 209 210 222 240 242 251 257 250 245 248 243 234 236 232 219 216 222 224 219 212 210 216 224 215 206 211 218 231 238 221 213 212 214 222 204 197 212 224 210 198 194 202 205 202 202 200 198 195 194 194 191 187 187
328 326 326 323 322 340 228 238 250 267 293 306 302 309 300 288 281 262 255 263 268 246 120 146 212 234 233 237 241 247 253 256 261 232 212 220 215 223 249 256 254 258 250 241 244 248 248 247 238 221 215 224 228 218 207 209 215 216 215 211 207 208 221 236 226 217 213 212 226 215 198 203 220 216 206 198 200 202 199 199 199 197 195 192 190 191 189 185
330 326 327 317 305 320 275 252 295 293 284 290 294 298 287 265 244 269 279 307 285 282 139 207 244 261 260 261 260 259 257 254 254 245 234 234 228 224 231 240 240 245 244 238 237 241 244 248 239 217 214 225 231 218 207 212 213 209 214 212 202 200 209 219 226 226 218 209 221 220 206 204 214 216 210 202 196 199 200 199 197 195 193 189 188 191 188 182
331 329 334 308 276 284 284 303 334 312 285 282 279 283 284 272 240 252 283 345 304 317 95 270 296 315 289 282 275 267 268 261 246 242 240 235 235 231 223 220 215 223 233 229 228 229 230 236 230 214 213 221 227 216 206 211 207 202 212 209 197 196 197 203 214 217 218 217 215 216 211 206 214 222 218 205 191 195 204 202 198 194 190 188 187 189 186 182
333 331 1 340 279 260 277 298 313 299 279 272 272 275 274 273 276 285 302 324 323 324 310 300 315 311 294 280 272 269 265 257 245 239 236 235 241 236 229 225 222 229 237 227 228 225 217 225 223 212 206 215 223 217 204 203 196 200 209 201 195 197 188 193 202 203 214 223 216 212 210 209 216 218 222 218 189 186 202 205 199 193 190 189 186 186 185 182
338 359 341 307 269 260 274 279 289 283 251 249 278 282 259 265 297 312 308 302 307 311 307 320 317 288 273 258 260 268 259 254 247 229 217 229 241 238 232 226 221 229 243 237 240 225 209 208 211 211 200 199 213 221 213 199 192 201 206 199 201 202 190 188 192 197 205 213 213 209 206 212 218 204 213 224 199 183 200 205 197 192 190 190 185 186 187 182
336 159 299 272 254 254 261 253 260 267 254 250 275 273 266 289 310 314 307 297 308 313 312 320 299 267 267 259 258 258 246 249 245 225 220 231 232 230 232 221 211 216 225 235 249 219 211 204 194 204 206 196 202 215 219 206 194 198 200 200 205 201 193 192 198 208 208 207 208 206 204 211 219 166 201 217 204 182 197 202 195 190 188 189 188 188 187 180
309 268 239 237 277 294 250 244 240 249 258 261 272 276 284 305 309 310 310 303 310 314 308 302 273 254 268 269 265 247 222 229 242 234 236 234 228 226 230 221 204 207 207 223 253 219 207 203 185 190 202 205 202 205 214 210 196 194 199 203 208 204 199 196 203 215 216 211 203 199 209 207 203 181 195 212 201 179 190 200 194 189 188 189 190 188 184 179
331 302 248 227 339 335 256 228 220 240 258 257 258 282 305 311 311 314 309 303 308 306 297 298 273 245 273 273 275 224 213 229 233 228 237 230 227 226 226 226 213 210 204 211 247 239 210 197 184 187 194 201 204 205 211 216 211 198 193 198 206 211 208 200 201 197 201 211 199 195 209 210 202 191 192 212 201 179 188 200 194 190 189 189 190 188 182 176
329 308 272 234 7 340 251 201 213 235 252 253 254 268 292 303 308 314 315 314 310 277 243 274 254 190 271 283 323 261 230 232 201 206 228 214 213 220 214 208 206 209 209 205 225 255 239 203 184 192 192 189 200 207 208 217 220 210 195 198 207 212 204 200 207 192 191 205 199 197 206 211 212 194 181 202 198 180 190 198 195 192 189 188 187 185 182 174
297 283 253 137 27 359 154 183 208 226 236 260 276 286 302 307 310 316 325 325 309 262 238 269 252 215 257 279 313 298 251 245 229 225 225 199 200 232 218 201 190 199 210 213 228 257 251 224 183 188 188 182 193 208 203 206 214 210 205 205 211 216 205 202 211 199 195 203 197 196 202 210 215 193 177 193 195 188 194 195 195 192 187 187 184 181 181 174
288 284 141 103 13 51 139 184 203 217 239 267 291 296 304 311 313 316 325 341 290 248 252 277 267 248 265 275 288 283 259 259 254 248 227 197 209 253 224 201 178 193 210 222 239 253 253 254 197 180 182 184 190 202 202 202 204 202 206 206 203 209 210 208 216 210 204 204 196 196 202 211 215 189 180 194 197 194 195 194 195 190 183 183 179 177 179 172
288 296 117 102 5 122 159 203 209 230 258 281 297 299 309 317 314 313 319 4 154 239 253 271 281 267 274 284 281 270 267 269 250 232 233 209 219 258 219 186 173 196 210 220 231 236 232 241 204 174 177 188 190 191 201 212 210 197 198 203 198 200 205 204 208 209 211 207 199 205 208 205 207 194 185 190 196 196 194 192 193 186 179 177 176 180 179 171
281 314 93 117 95 191 219 247 242 235 250 294 317 321 322 319 312 314 322 340 135 254 260 259 267 264 267 275 282 284 281 276 257 232 231 211 214 281 212 184 191 207 218 229 224 212 221 234 197 175 175 182 184 190 200 215 217 206 199 202 197 198 204 203 197 198 207 203 196 207 212 190 191 200 186 174 187 199 194 190 191 186 180 175 176 186 184 173
299 349 103 127 141 219 248 278 301 282 289 318 325 326 323 316 313 322 331 336 350 355 284 257 242 261 268 266 282 293 284 280 307 348 229 216 196 106 182 187 204 226 231 240 215 185 177 238 189 170 174 175 179 188 197 210 217 211 204 205 202 201 204 210 207 195 203 205 197 203 205 159 102 198 192 171 180 195 192 190 191 185 179 175 174 185 189 177
311 297 137 138 149 230 272 312 333 322 318 323 323 324 322 315 320 329 335 336 341 75 287 294 261 253 273 275 280 289 291 296 331 41 224 218 175 145 184 188 205 231 223 267 264 143 125 248 191 164 174 175 175 185 190 201 212 211 206 206 207 206 206 216 222 204 211 212 198 200 202 158 120 185 211 182 180 186 182 186 193 186 181 179 178 182 181 173
302 287 314 142 163 226 280 303 315 311 321 325 323 323 322 321 335 342 338 334 345 121 195 293 293 231 271 287 282 282 285 270 167 237 229 203 157 162 193 189 201 225 221 301 320 348 18 272 227 172 176 169 174 187 182 188 202 209 212 209 206 205 206 214 218 204 211 208 194 199 192 139 137 168 192 188 186 185 174 177 189 186 181 182 178 173 166 163
314 320 343 357 185 249 268 249 285 315 328 328 321 321 326 330 340 348 342 338 355 61 181 239 288 242 262 283 283 282 266 199 192 241 214 203 171 177 196 189 200 222 221 342 297 289 294 281 294 298 211 176 183 191 185 188 196 199 206 207 205 207 207 208 212 208 207 204 199 194 142 132 151 162 170 177 180 177 170 176 182 169 159 167 164 159 157 163
332 330 343 345 301 285 298 300 333 338 325 320 319 321 328 331 336 344 346 343 349 346 207 184 195 245 256 260 278 285 261 209 209 213 208 225 195 169 184 189 200 218 255 319 253 259 288 244 224 299 283 255 218 193 186 189 193 196 203 203 202 210 212 209 212 214 210 209 206 189 143 139 155 150 149 152 146 144 153 171 180 171 161 160 156 156 160 168
359 329 5 6 310 293 324 328 330 329 318 315 318 321 327 332 336 344 340 327 335 345 351 181 200 223 233 240 275 279 224 173 176 212 229 240 187 163 175 192 202 206 225 254 240 241 289 264 213 237 258 273 317 220 194 191 190 193 201 202 202 209 214 213 212 210 209 211 207 191 168 154 150 145 147 142 123 118 115 113 137 170 173 171 169 173 178 185
5 331 8 14 318 294 305 312 315 319 321 328 333 329 331 331 333 338 333 326 330 346 359 339 308 298 234 226 248 261 215 164 173 212 236 242 206 176 172 191 206 199 207 237 248 246 266 281 267 257 244 213 217 229 215 204 198 197 199 201 202 203 208 215 216 211 210 218 230 218 196 190 179 153 144 135 115 110 108 112 138 167 174 175 178 184 191 197
9 352 346 341 318 297 297 314 322 318 327 350 349 336 330 327 329 332 330 325 321 332 350 331 319 337 336 214 218 238 249 272 232 210 218 226 220 199 180 189 206 198 202 225 249 253 254 298 301 278 260 229 219 219 221 214 210 208 202 198 201 202 205 213 216 216 217 221 241 251 224 207 203 150 118 111 126 139 145 157 162 171 176 177 181 185 192 199
7 357 336 321 313 304 305 324 332 327 338 355 346 335 327 322 325 326 323 318 307 321 337 325 320 335 336 198 220 255 266 274 268 242 224 224 228 225 211 213 217 201 202 224 246 238 234 274 283 256 235 219 202 207 225 226 224 224 213 203 201 201 203 209 210 212 217 219 228 239 232 212 197 133 114 135 218 204 188 177 162 178 186 181 183 185 189 194
360 348 341 318 300 302 313 323 334 339 347 345 336 331 322 316 320 323 324 320 307 319 329 324 326 339 177 199 313 306 280 262 250 252 253 241 244 254 254 267 269 224 196 215 242 245 249 268 283 279 277 241 192 198 225 225 221 224 219 212 208 203 202 205 206 207 213 221 224 227 230 222 184 144 148 180 206 161 155 154 135 197 197 190 191 189 188 190